Temp
56 57 57 57 57 57 56 56 56 56 57 57 57 57 57 57 57 52 50 52 48 45 48 49 52 48 46 46 43 50 50 50 50 48 49 49 49 53 50 53 54 54 51 48 46 46 50 68 69 64 66 63 66 65
56 56 56 56 56 56 56 56 56 56 56 57 57 57 57 57 57 55 48 54 55 45 46 52 52 55 55 57 50 49 46 45 49 47 47 47 50 49 48 50 52 52 57 54 55 53 60 62 64 64 64 63 65 65
55 55 55 55 55 55 55 55 56 56 56 56 56 57 57 56 56 54 50 50 49 45 47 46 45 52 53 55 61 46 47 53 51 51 48 48 48 51 49 50 51 54 54 54 56 57 61 64 64 67 68 66 67 67
55 55 55 55 55 55 55 55 56 56 56 56 56 56 56 56 55 55 49 51 49 46 41 43 56 52 57 54 54 58 58 53 52 50 48 46 48 55 51 52 52 56 55 53 54 58 63 66 66 67 67 68 67 68
55 55 55 55 55 55 55 55 56 55 56 56 56 56 56 55 54 53 52 52 52 46 42 44 50 53 54 55 54 55 55 53 48 49 47 48 50 52 52 52 53 56 55 55 54 61 59 62 65 68 68 66 67 67
55 55 55 55 55 55 55 55 55 55 56 56 55 55 55 54 54 49 45 50 54 50 43 41 47 49 55 54 54 51 52 47 50 49 50 51 54 54 49 48 58 59 59 60 62 61 63 64 68 69 67 67 69 68
55 55 55 55 55 55 55 55 55 55 55 55 54 54 54 53 51 47 44 49 52 51 44 43 43 52 58 56 52 49 52 50 51 50 49 51 53 51 47 49 61 65 66 65 68 67 67 67 66 68 68 68 66 66
54 54 54 54 54 55 54 54 54 54 54 55 54 53 53 53 51 48 50 53 53 48 48 44 42 47 57 51 49 51 48 48 48 51 52 52 51 48 49 56 59 65 64 65 66 67 67 67 65 66 67 67 65 64
54 54 54 54 54 54 54 54 54 54 54 54 53 53 51 48 46 50 57 55 52 49 45 45 43 43 55 52 52 51 51 46 51 50 52 52 46 48 54 59 61 63 67 65 63 65 65 64 63 64 65 65 63 61
54 54 54 54 54 54 54 54 54 53 53 52 48 44 45 49 55 55 51 48 47 48 47 43 45 45 51 49 48 49 51 49 45 50 50 47 46 53 58 60 61 63 63 64 64 60 62 61 61 61 62 63 65 63
54 54 54 54 54 54 54 54 54 52 51 44 39 39 44 52 49 49 46 45 46 44 47 47 46 46 53 47 48 51 48 49 45 49 48 43 44 53 57 58 58 61 62 62 65 64 63 63 61 61 60 60 60 59
53 53 53 54 54 54 54 53 53 50 45 45 46 48 48 46 46 45 45 47 45 45 48 47 49 50 50 52 49 50 48 47 45 52 49 45 49 54 57 59 59 59 62 61 62 60 60 59 59 58 57 57 58 58
53 53 53 53 53 54 53 53 53 52 50 47 46 43 43 44 38 41 41 43 45 48 50 50 48 51 50 52 50 49 46 45 52 47 49 50 52 54 55 57 57 60 61 61 60 61 60 59 60 59 57 58 59 59
53 53 53 53 53 53 53 53 53 51 45 43 43 36 40 41 43 45 45 46 50 50 49 49 48 49 50 49 49 46 50 51 46 45 48 50 52 53 54 56 59 58 60 60 59 59 59 58 57 58 58 59 60 60
52 52 53 53 54 54 54 53 53 49 44 41 43 37 41 47 48 49 50 49 51 52 50 48 48 49 48 48 48 48 47 47 48 47 48 50 52 55 55 55 57 58 57 56 58 58 57 57 56 55 56 57 58 58
53 52 52 53 54 53 53 52 49 48 45 43 43 40 45 44 44 46 48 48 51 50 50 49 48 46 46 46 45 47 48 46 46 49 52 53 54 54 55 56 56 56 55 55 56 56 55 55 55 54 55 55 56 57
52 50 53 53 52 52 53 49 47 45 43 43 41 46 45 45 44 46 49 48 52 48 46 47 45 44 48 45 47 47 45 47 50 52 53 54 55 55 55 56 57 57 55 54 54 54 54 54 54 54 54 54 55 55
49 52 53 52 52 49 47 47 46 45 41 44 41 41 45 48 48 49 51 52 50 47 47 46 48 45 44 45 44 48 50 51 52 53 55 55 55 56 57 57 56 55 54 54 54 54 54 54 53 53 53 54 54 55
51 51 52 52 51 45 43 46 46 41 43 45 42 39 40 44 49 50 49 52 52 51 47 47 46 44 45 46 47 49 50 50 50 53 55 56 57 57 57 55 55 54 54 54 54 54 54 54 54 54 54 54 54 53
52 52 53 53 51 44 43 44 48 43 38 38 38 38 40 43 46 47 48 48 47 45 43 44 44 46 50 50 51 51 52 53 52 53 53 55 56 56 54 54 54 54 54 54 54 51 55 55 54 55 55 55 54 56
50 51 53 50 47 45 43 41 40 43 38 38 43 44 43 44 44 45 45 47 45 41 41 45 47 49 53 54 54 53 53 53 52 54 54 53 55 56 54 55 55 54 55 54 55 54 53 56 56 56 56 57 56 57
47 53 45 49 45 45 42 42 37 38 37 39 42 45 43 44 44 45 46 44 42 43 44 47 48 49 50 52 53 55 56 55 54 56 52 52 54 54 54 55 55 55 56 57 57 57 57 58 57 57 57 58 54 57
50 49 46 46 43 38 36 39 37 39 37 40 42 41 45 45 48 50 46 48 50 50 48 47 49 51 50 51 52 54 56 55 55 54 55 54 54 54 54 55 56 57 56 58 57 58 57 53 55 57 58 57 57 57
51 44 42 39 40 33 39 38 42 42 41 39 39 42 46 45 46 47 46 46 48 51 51 52 53 53 51 51 50 51 53 53 54 54 54 54 53 54 54 55 56 57 58 59 59 59 59 58 53 57 58 58 58 57
37 33 33 30 36 36 37 40 43 42 41 42 42 45 45 46 45 44 44 46 48 51 52 53 53 53 51 52 51 51 53 53 52 52 53 53 53 52 54 55 56 57 59 59 59 61 61 60 59 59 59 59 59 59
34 36 32 38 40 38 40 39 39 38 38 39 42 45 46 45 44 42 45 46 48 49 52 53 52 49 52 51 50 50 51 51 52 52 54 54 54 54 54 53 54 57 58 60 60 61 60 59 59 60 62 61 51 60
34 35 39 43 41 44 42 39 39 37 37 39 44 45 44 41 43 47 50 52 50 52 52 52 53 51 52 54 55 55 53 51 52 53 54 55 55 55 55 55 54 58 60 61 61 61 61 63 62 62 62 63 63 62
38 38 36 42 41 40 38 37 37 38 44 46 44 41 43 44 44 48 51 54 52 53 55 55 56 55 55 55 56 56 55 51 51 52 52 53 54 56 56 57 58 50 59 61 62 62 62 65 64 63 63 62 62 63
37 41 42 39 39 38 38 38 39 40 41 41 41 42 45 47 48 50 53 53 52 54 53 53 54 55 55 55 55 56 57 55 52 51 52 52 53 56 57 58 59 60 60 61 50 56 65 65 64 64 63 62 63 63
40 46 42 42 40 37 40 44 41 43 44 46 48 48 48 48 50 52 51 51 53 53 54 54 55 54 54 55 55 55 52 52 53 52 50 51 53 56 56 57 58 60 60 61 63 63 50 57 55 62 63 64 64 63
46 44 42 42 42 46 48 46 45 45 47 47 47 46 47 49 50 54 54 55 55 55 54 53 54 54 54 54 54 54 54 56 55 56 55 55 56 56 58 58 58 58 60 61 61 61 62 61 62 62 63 63 64 59
45 42 41 39 42 48 49 45 47 48 48 47 48 50 50 47 46 51 55 55 55 54 52 54 55 54 56 56 56 57 47 56 59 58 58 55 56 58 59 58 58 59 61 61 62 61 61 62 61 61 62 63 63 62
45 43 43 42 41 44 47 47 48 48 49 49 50 52 52 49 48 52 58 57 55 55 54 55 57 58 58 58 57 57 51 58 56 43 43 45 45 50 55 59 59 59 59 59 60 60 61 62 62 61 61 61 60 59
MSLP
1020.02 1019.72 1019.35 1018.94 1018.58 1018.35 1017.95 1017.59 1017.49 1017.14 1016.78 1016.29 1015.95 1015.64 1015.36 1015.19 1015.04 1015.06 1014.65 1014.33 1014.40 1013.25 1011.34 1010.34 1010.13 1009.68 1009.12 1008.70 1008.26 1006.83 1005.88 1005.02 1004.09 1003.61 1003.16 1002.13 1001.36 1000.23 999.80 999.21 999.11 999.73 1000.69 1001.39 1001.22 1000.37 998.88 996.75 996.72 996.77 996.20 996.48 996.78 997.85
1019.31 1019.15 1018.71 1018.49 1018.18 1017.92 1017.90 1017.33 1016.83 1016.54 1016.13 1015.99 1015.71 1015.29 1014.96 1014.91 1014.72 1014.55 1014.31 1013.79 1013.69 1013.51 1011.08 1009.85 1009.25 1008.51 1008.10 1007.31 1007.68 1007.24 1006.53 1005.99 1004.98 1004.27 1003.76 1002.84 1001.99 1001.12 1000.28 1000.10 999.62 999.87 999.80 1000.43 1000.11 998.95 997.52 996.86 996.55 996.21 996.47 996.66 997.54 998.01
1018.69 1018.38 1018.20 1017.98 1017.59 1017.23 1017.06 1016.82 1016.26 1015.99 1015.73 1015.41 1015.12 1014.85 1014.48 1014.31 1014.28 1014.33 1013.81 1013.46 1013.47 1012.48 1009.96 1008.60 1006.78 1006.23 1006.34 1006.34 1006.62 1007.20 1006.15 1005.52 1004.83 1004.31 1004.09 1003.32 1002.45 1001.50 1001.09 1000.36 999.95 999.75 999.74 1000.00 999.82 998.22 997.45 996.72 996.51 996.36 996.45 996.81 997.29 998.07
1017.98 1017.72 1017.47 1017.28 1017.05 1016.66 1016.45 1016.21 1015.99 1015.71 1015.13 1014.67 1014.44 1014.25 1013.97 1013.68 1013.60 1013.54 1013.41 1012.92 1013.02 1012.52 1010.93 1007.30 1005.49 1005.20 1004.11 1004.69 1005.22 1004.98 1004.61 1004.86 1004.81 1004.56 1004.34 1003.63 1002.79 1001.35 1001.06 1000.37 1000.09 999.57 999.68 999.61 999.34 998.26 997.53 996.81 996.38 996.33 996.86 997.46 998.11 998.75
1017.44 1017.20 1016.91 1016.77 1016.67 1016.35 1016.04 1015.89 1015.46 1015.04 1014.70 1014.22 1013.80 1013.48 1013.17 1012.94 1012.78 1012.59 1012.16 1011.77 1011.92 1012.25 1010.62 1007.90 1005.88 1003.40 1003.12 1003.53 1004.00 1004.47 1005.18 1005.45 1005.72 1005.28 1004.56 1003.56 1002.24 1001.73 1001.11 1000.59 999.67 999.01 998.94 999.09 998.22 997.45 997.55 996.95 996.74 996.65 996.89 997.82 998.34 998.79
1016.71 1016.54 1016.34 1016.03 1015.73 1015.45 1014.99 1014.86 1015.03 1014.48 1013.97 1013.52 1013.10 1012.72 1012.40 1012.19 1012.08 1012.20 1011.41 1010.84 1010.75 1011.42 1011.04 1008.87 1005.61 1003.59 1002.78 1002.80 1003.42 1004.11 1004.74 1005.57 1005.61 1005.17 1004.25 1002.65 1001.64 1001.57 1001.30 1000.40 998.66 998.20 997.85 997.69 997.20 996.95 997.13 997.00 997.11 997.28 997.77 998.35 998.78 999.21
1016.07 1015.85 1015.60 1015.47 1015.25 1015.09 1014.72 1014.32 1014.08 1013.75 1013.28 1012.76 1012.30 1011.92 1011.51 1011.19 1011.44 1011.51 1011.25 1010.90 1010.82 1011.28 1010.75 1008.60 1006.25 1003.52 1002.65 1002.81 1003.44 1004.04 1004.41 1004.49 1004.51 1004.31 1003.51 1002.50 1001.80 1001.47 1001.18 1000.15 998.19 997.54 997.28 997.16 996.89 997.00 997.51 997.41 997.63 997.89 998.36 999.01 999.42 999.97
1015.47 1015.31 1015.04 1014.82 1014.68 1014.59 1014.40 1014.06 1013.67 1013.13 1012.55 1011.96 1011.40 1010.92 1010.62 1009.97 1010.37 1010.69 1010.15 1010.20 1010.63 1010.74 1009.93 1008.33 1006.06 1004.28 1002.81 1002.75 1002.93 1003.21 1003.83 1003.98 1003.76 1003.09 1002.53 1002.14 1001.89 1001.57 1000.85 999.04 998.17 997.88 997.41 997.44 997.04 997.19 997.52 997.83 998.25 998.41 998.67 999.26 1000.05 1000.77
1014.97 1014.77 1014.53 1014.60 1014.23 1013.77 1013.85 1013.57 1013.30 1012.70 1012.03 1011.32 1010.71 1009.96 1010.29 1010.25 1010.03 1009.52 1009.32 1009.27 1009.48 1009.97 1008.86 1007.84 1006.34 1004.61 1003.45 1003.07 1002.72 1002.51 1002.32 1003.25 1002.55 1002.38 1001.96 1001.68 1001.76 1001.04 999.54 998.55 997.91 998.00 997.43 998.03 998.06 998.05 998.54 998.75 999.15 999.37 999.66 1000.00 1000.62 1001.07
1014.49 1014.27 1014.09 1013.98 1013.92 1013.47 1013.28 1013.12 1012.88 1012.40 1011.54 1010.84 1010.60 1010.30 1009.95 1009.62 1009.34 1009.23 1008.76 1009.03 1009.14 1008.68 1008.14 1007.00 1005.89 1004.72 1004.07 1003.71 1002.63 1002.14 1001.45 1001.71 1002.11 1001.41 1001.30 1001.46 1000.93 999.66 998.48 998.06 997.95 997.90 997.79 997.80 998.51 999.64 999.17 999.70 1000.01 1000.13 1000.24 1000.43 1000.64 1001.11
1014.19 1014.00 1013.80 1013.48 1013.11 1013.16 1012.93 1012.69 1012.51 1012.18 1011.42 1011.45 1011.39 1010.87 1010.15 1009.47 1009.11 1008.59 1007.88 1007.94 1007.80 1007.33 1006.55 1005.63 1005.10 1004.53 1003.66 1003.44 1002.87 1002.15 1001.46 1001.19 1001.03 1000.70 1000.81 1001.01 1000.39 998.88 998.17 998.00 997.83 997.87 997.99 998.03 998.02 998.62 999.14 999.59 1000.28 1000.59 1000.94 1001.11 1001.42 1001.78
1014.01 1013.58 1013.28 1012.66 1012.42 1012.37 1012.45 1012.37 1012.27 1012.35 1012.28 1011.95 1012.02 1011.19 1010.37 1009.48 1008.60 1007.76 1006.87 1006.33 1006.08 1005.29 1004.80 1004.44 1003.96 1003.85 1003.46 1003.28 1002.63 1001.97 1001.26 1000.93 1000.41 1000.19 1000.32 1000.03 998.84 998.23 998.05 997.84 997.90 998.08 998.44 998.79 998.97 999.38 999.93 1000.34 1000.76 1001.09 1001.48 1001.88 1002.20 1002.42
1013.32 1013.15 1012.59 1012.49 1012.22 1011.94 1011.92 1012.01 1012.05 1011.96 1011.70 1011.62 1011.24 1010.62 1009.78 1008.83 1007.97 1006.83 1005.92 1005.37 1004.73 1004.47 1004.14 1003.88 1003.68 1003.23 1003.06 1002.72 1002.59 1002.07 1001.42 1000.43 999.99 1000.03 999.62 998.90 998.58 998.45 998.32 998.23 998.40 998.60 998.98 999.37 999.95 1000.18 1000.52 1001.04 1001.43 1001.71 1002.09 1002.45 1002.68 1002.98
1012.86 1012.64 1012.14 1012.01 1011.85 1011.52 1011.53 1011.66 1011.75 1011.78 1011.93 1011.62 1010.68 1009.89 1009.07 1007.85 1006.84 1006.00 1005.65 1005.14 1004.52 1004.14 1004.16 1004.03 1003.54 1002.93 1002.73 1002.51 1002.45 1001.97 1001.00 1000.12 999.93 999.84 999.33 998.99 999.01 998.93 998.95 999.02 998.75 999.42 999.73 1000.12 1000.69 1001.07 1001.47 1001.83 1002.33 1002.56 1002.68 1002.84 1003.03 1003.45
1012.34 1011.98 1011.73 1011.50 1011.26 1011.21 1011.38 1011.52 1011.63 1011.81 1011.90 1011.31 1010.47 1009.31 1008.06 1007.10 1006.37 1005.82 1005.53 1005.06 1004.50 1004.20 1004.09 1003.83 1003.65 1003.17 1002.88 1002.58 1002.53 1001.90 1001.07 1000.17 999.74 999.63 999.72 999.57 999.59 999.46 999.66 1000.12 1000.25 1000.36 1000.75 1001.18 1001.58 1001.81 1002.30 1002.66 1002.96 1003.34 1003.53 1003.66 1003.83 1004.10
1011.85 1011.65 1011.34 1011.27 1011.35 1011.37 1011.34 1011.36 1011.46 1011.61 1011.37 1010.83 1010.00 1009.08 1007.81 1007.24 1006.64 1006.09 1005.53 1005.14 1004.73 1004.36 1004.00 1003.92 1003.00 1002.73 1002.62 1002.56 1002.42 1001.62 1001.06 1000.78 1000.73 1000.51 1000.13 999.99 1000.14 1000.41 1000.28 1000.96 1001.68 1001.59 1001.68 1002.01 1002.35 1002.66 1003.03 1003.34 1003.63 1003.88 1004.00 1004.17 1004.37 1004.50
1011.54 1011.45 1011.26 1011.27 1011.30 1011.18 1010.99 1011.31 1011.35 1011.08 1010.55 1009.87 1009.12 1008.42 1008.11 1007.57 1006.88 1006.28 1005.66 1005.25 1004.88 1004.67 1004.12 1003.77 1003.05 1002.81 1002.52 1002.30 1001.82 1001.79 1001.94 1001.79 1001.30 1000.80 1000.63 1000.50 1000.39 1000.72 1001.27 1001.89 1002.12 1002.32 1002.54 1002.83 1003.13 1003.41 1003.68 1003.92 1004.11 1004.31 1004.58 1004.64 1004.63 1004.65
1011.38 1011.24 1011.28 1011.36 1011.25 1011.12 1011.02 1011.01 1010.84 1010.29 1009.69 1009.09 1008.90 1008.20 1007.82 1007.15 1006.51 1005.91 1005.30 1004.94 1004.93 1004.86 1004.38 1004.04 1003.79 1003.15 1002.83 1002.56 1002.72 1002.69 1002.46 1002.08 1001.73 1001.42 1001.28 1001.32 1001.16 1001.68 1001.94 1001.77 1002.32 1002.76 1003.04 1003.31 1003.57 1003.87 1004.06 1004.25 1004.50 1004.73 1004.77 1004.93 1005.00 1005.01
1011.11 1011.15 1011.27 1011.29 1011.36 1011.52 1011.30 1010.59 1010.32 1009.95 1009.13 1008.65 1008.25 1007.94 1007.53 1006.78 1005.95 1005.45 1005.11 1004.76 1004.65 1004.58 1004.59 1004.12 1003.86 1003.50 1003.21 1003.11 1003.10 1002.78 1002.80 1002.69 1002.50 1002.04 1001.84 1001.93 1001.82 1001.94 1002.26 1002.47 1002.83 1003.09 1003.30 1003.54 1003.77 1003.97 1004.09 1004.26 1004.44 1004.60 1004.81 1004.93 1005.07 1005.18
1010.89 1010.84 1010.79 1010.92 1011.23 1011.42 1011.10 1010.47 1009.88 1009.82 1009.23 1008.61 1008.30 1007.77 1007.13 1006.34 1005.48 1005.09 1004.87 1004.75 1004.76 1004.71 1004.76 1004.39 1003.92 1003.40 1003.05 1003.15 1003.23 1003.07 1002.82 1002.76 1002.55 1002.42 1002.49 1002.38 1002.36 1002.59 1002.78 1002.87 1003.10 1003.25 1003.43 1003.64 1003.82 1003.95 1004.18 1004.40 1004.49 1004.59 1004.72 1004.81 1004.99 1005.09
1010.80 1010.70 1010.67 1010.95 1011.20 1011.32 1011.18 1010.59 1010.10 1009.60 1009.23 1008.77 1007.74 1007.27 1006.57 1005.78 1005.38 1005.03 1004.80 1004.57 1004.89 1004.88 1004.76 1004.16 1003.76 1003.53 1003.24 1003.17 1002.89 1003.20 1003.19 1002.97 1002.75 1002.70 1002.66 1002.68 1002.69 1002.73 1002.90 1002.99 1003.09 1003.26 1003.40 1003.66 1003.86 1004.00 1004.08 1004.16 1004.16 1004.33 1004.45 1004.58 1004.81 1004.90
1010.86 1010.58 1010.88 1010.96 1011.00 1010.85 1010.81 1010.52 1010.34 1009.78 1009.44 1008.28 1007.60 1006.85 1006.12 1005.42 1004.90 1004.62 1004.50 1004.62 1004.51 1004.21 1003.94 1003.53 1003.33 1003.22 1003.24 1003.11 1003.11 1003.09 1002.99 1002.88 1002.91 1002.59 1002.60 1002.70 1002.87 1002.95 1002.99 1003.01 1003.18 1003.25 1003.29 1003.27 1003.42 1003.58 1003.61 1003.68 1003.86 1004.03 1004.19 1004.36 1004.56 1004.69
1010.81 1010.79 1010.93 1010.91 1010.85 1010.78 1010.54 1010.30 1010.13 1009.29 1008.83 1007.80 1007.09 1006.47 1005.60 1004.91 1004.31 1004.20 1004.22 1004.00 1003.72 1003.46 1003.30 1003.10 1002.85 1002.70 1002.83 1002.67 1002.68 1002.72 1002.89 1002.93 1002.96 1002.99 1003.04 1002.90 1002.77 1002.80 1002.83 1002.87 1002.96 1003.05 1003.08 1002.90 1002.85 1002.97 1003.13 1003.19 1003.43 1003.66 1003.84 1004.06 1004.36 1004.48
1010.78 1010.96 1010.95 1010.89 1010.83 1010.67 1010.22 1009.87 1009.24 1008.74 1008.06 1007.44 1006.74 1005.99 1005.20 1004.65 1004.16 1003.96 1004.06 1004.14 1003.71 1003.28 1003.05 1002.88 1002.75 1002.69 1002.74 1002.70 1002.70 1002.67 1002.67 1002.70 1002.83 1002.86 1002.87 1002.86 1002.93 1002.92 1002.79 1002.71 1002.64 1002.63 1002.56 1002.40 1002.53 1002.61 1002.70 1002.81 1003.02 1003.28 1003.46 1003.77 1004.04 1004.10
1011.22 1011.28 1011.37 1011.11 1010.71 1010.56 1009.97 1009.29 1008.56 1008.17 1007.68 1006.96 1006.35 1005.62 1004.94 1004.57 1004.32 1004.38 1004.43 1004.25 1003.81 1003.23 1003.11 1002.94 1002.86 1002.80 1002.86 1002.77 1002.76 1002.70 1002.55 1002.61 1002.78 1002.82 1002.79 1002.76 1002.79 1002.82 1002.78 1002.63 1002.39 1002.24 1002.15 1002.29 1002.25 1002.29 1002.33 1002.37 1002.60 1002.89 1003.09 1003.40 1003.66 1003.78
1010.99 1010.93 1010.98 1010.42 1010.21 1010.03 1009.46 1009.00 1008.64 1008.16 1007.62 1006.87 1006.03 1005.26 1004.73 1004.58 1004.44 1004.37 1004.04 1003.85 1003.74 1003.58 1003.36 1003.13 1002.93 1002.74 1002.44 1002.37 1002.37 1002.38 1002.32 1002.29 1002.45 1002.58 1002.44 1002.47 1002.50 1002.62 1002.58 1002.55 1002.37 1001.94 1001.64 1001.68 1001.87 1001.92 1001.92 1001.97 1002.20 1002.51 1002.68 1002.77 1003.02 1003.21
1010.89 1010.56 1010.27 1009.85 1009.69 1009.40 1009.09 1008.67 1008.32 1008.26 1007.67 1006.81 1005.96 1005.40 1004.99 1004.65 1004.03 1003.81 1003.56 1003.47 1003.44 1003.09 1002.83 1002.54 1002.41 1002.20 1001.85 1001.64 1001.53 1001.55 1001.67 1001.87 1001.90 1001.90 1001.88 1001.93 1001.95 1001.99 1002.13 1002.13 1001.91 1001.39 1001.18 1001.34 1001.54 1001.66 1001.78 1001.85 1001.97 1002.08 1002.17 1002.18 1002.26 1002.45
1010.62 1010.29 1010.06 1009.60 1009.39 1009.18 1009.12 1008.83 1008.42 1008.00 1007.34 1006.73 1006.18 1005.73 1005.28 1004.85 1004.52 1004.05 1003.48 1002.99 1002.76 1002.39 1002.04 1001.74 1001.44 1001.24 1001.18 1001.15 1001.09 1001.11 1001.27 1001.41 1001.53 1001.62 1001.55 1001.47 1001.32 1001.27 1001.27 1001.27 1001.20 1001.11 1001.02 1000.97 1001.17 1001.27 1001.47 1001.42 1001.40 1001.50 1001.54 1001.58 1001.55 1001.55
1010.30 1009.74 1009.56 1009.28 1009.01 1008.85 1008.51 1008.37 1008.05 1007.69 1007.35 1007.09 1006.75 1006.04 1005.63 1005.39 1004.88 1004.08 1003.14 1002.74 1002.56 1002.09 1001.58 1001.36 1001.03 1000.84 1000.70 1000.58 1000.55 1000.60 1000.75 1000.98 1001.41 1001.50 1001.38 1001.30 1001.14 1000.86 1000.78 1000.67 1000.58 1000.56 1000.53 1000.77 1000.88 1001.12 1001.37 1001.30 1001.31 1001.54 1001.48 1001.24 1001.06 1001.02
1009.52 1008.96 1009.04 1008.81 1008.56 1008.10 1007.70 1007.40 1007.42 1007.15 1007.03 1006.86 1006.34 1005.59 1005.38 1004.86 1003.50 1002.95 1002.74 1002.41 1002.10 1001.77 1001.49 1001.24 1001.16 1001.00 1000.89 1000.63 1000.49 1000.40 1000.41 1000.50 1000.70 1001.03 1001.07 1001.10 1000.97 1000.88 1000.74 1000.58 1000.43 1000.37 1000.34 1000.51 1000.65 1000.81 1000.81 1001.27 1001.26 1001.52 1001.45 1000.98 1000.97 1000.87
1008.76 1008.69 1008.62 1008.33 1007.91 1007.33 1006.98 1006.78 1006.70 1006.65 1006.58 1006.19 1005.60 1005.42 1005.01 1004.34 1003.17 1002.27 1002.35 1001.98 1001.79 1001.57 1001.42 1001.30 1001.19 1001.11 1000.98 1000.77 1000.62 1000.53 1000.38 1000.25 1000.22 1000.35 1000.46 1000.53 1000.63 1000.65 1000.59 1000.57 1000.56 1000.30 1000.25 1000.33 1000.37 1000.48 1000.65 1000.88 1001.02 1001.03 1000.89 1000.90 1000.73 1000.56
1008.20 1008.20 1008.24 1007.98 1007.38 1006.74 1006.51 1006.47 1006.26 1005.98 1005.64 1005.46 1005.07 1004.75 1004.30 1004.15 1003.56 1002.31 1001.65 1001.49 1001.69 1001.63 1001.49 1001.26 1001.08 1000.93 1000.54 1000.39 1000.26 1000.17 1000.17 1000.13 1000.04 999.97 1000.05 1000.23 1000.32 1000.37 1000.34 1000.35 1000.38 1000.34 1000.26 1000.14 1000.15 1000.28 1000.40 1000.40 1000.46 1000.51 1000.42 1000.32 1000.21 1000.17
1007.78 1007.81 1007.84 1007.81 1007.48 1006.91 1006.31 1006.10 1005.85 1005.58 1005.17 1004.72 1004.27 1003.85 1003.61 1003.71 1003.36 1002.49 1001.28 1001.29 1001.24 1001.24 1001.27 1000.88 1000.55 1000.21 1000.06 1000.10 999.96 999.83 999.89 999.98 999.82 1000.06 1000.03 999.93 1000.04 1000.20 1000.26 1000.24 1000.27 1000.16 1000.14 1000.09 1000.06 1000.07 1000.15 1000.23 1000.38 1000.35 1000.21 1000.27 1000.46 1000.77
Wind_Speed
14 14 15 15 16 16 17 16 16 17 16 16 16 14 14 15 11 3 3 4 2 4 12 12 9 9 4 3 3 5 6 1 4 2 3 3 3 5 2 4 7 6 6 4 3 3 6 5 5 8 7 1 6 5
14 15 14 14 16 17 19 16 15 15 15 16 17 16 14 14 14 5 3 2 3 4 9 14 19 20 20 13 5 4 3 1 5 1 1 1 1 1 3 3 3 1 7 6 10 9 5 5 4 2 4 6 6 8
14 14 14 14 15 15 16 17 16 16 16 17 17 16 15 14 13 8 3 2 2 4 10 5 12 10 13 25 17 3 4 7 4 3 2 2 3 3 4 5 3 2 3 3 2 4 6 5 3 3 3 3 8 7
14 14 14 14 14 15 15 16 17 17 17 17 17 17 17 15 12 11 5 3 2 3 6 9 5 8 6 12 19 27 10 3 2 2 1 2 2 2 3 2 3 5 5 5 4 6 3 2 2 6 9 9 12 8
13 14 14 14 14 15 16 16 18 16 18 19 19 19 19 16 15 10 7 6 8 4 5 9 16 9 8 13 16 18 15 11 3 4 2 4 2 1 1 1 3 5 7 6 7 6 4 2 2 2 9 8 10 16
14 14 14 14 14 14 15 15 17 18 18 20 21 21 19 15 11 2 4 1 7 5 4 6 5 7 5 5 11 10 8 4 3 4 5 4 3 2 1 2 5 4 3 5 4 3 1 4 5 4 5 7 5 7
14 14 14 14 15 14 15 15 16 18 19 22 22 21 20 15 4 4 3 2 5 4 3 6 6 5 2 4 3 3 6 4 4 4 4 2 2 3 2 3 6 1 1 2 5 7 6 2 4 6 8 7 9 8
13 13 13 14 14 14 14 15 17 18 19 22 23 22 17 2 6 2 5 10 4 3 4 4 6 5 3 2 2 4 5 2 3 4 1 2 1 1 3 7 4 0 6 6 8 6 4 6 3 5 7 10 9 8
12 13 13 14 15 13 14 15 16 18 20 22 24 8 2 1 2 2 6 6 5 2 3 3 3 3 5 3 3 3 4 4 1 4 4 5 1 5 9 7 5 8 5 7 6 9 8 7 7 5 6 6 6 7
12 13 12 13 15 13 13 13 16 16 20 19 4 2 2 2 11 10 2 3 3 4 3 4 3 4 3 3 4 2 1 4 3 5 4 3 5 7 8 6 4 6 8 9 11 1 5 5 3 4 5 1 6 9
12 13 13 14 13 13 12 12 12 14 8 4 4 3 3 10 1 3 3 4 4 4 4 4 5 3 3 2 3 1 3 1 3 3 5 3 5 7 4 8 6 6 7 2 6 6 5 6 6 5 3 3 5 6
13 13 13 13 12 10 11 10 9 3 2 3 5 5 3 2 3 4 3 3 5 4 3 3 3 5 3 2 4 2 3 1 2 2 3 3 6 2 3 6 6 7 9 8 6 9 8 8 6 6 5 5 5 6
13 14 12 13 12 10 10 10 7 8 6 2 3 3 2 2 1 4 5 3 2 3 3 3 2 2 0 2 2 3 3 4 1 1 4 4 3 3 4 5 9 10 13 13 11 10 10 9 7 6 7 5 6 7
14 15 13 11 12 10 10 5 4 3 2 3 3 5 3 3 4 2 3 3 3 2 2 3 3 1 1 2 2 5 5 3 1 2 4 1 2 4 6 5 11 11 11 13 11 10 10 10 8 7 6 5 6 5
14 13 11 12 8 1 3 2 3 0 1 3 3 4 4 2 3 3 2 4 4 2 2 3 3 2 1 2 2 3 4 4 2 2 2 1 4 4 10 9 7 11 10 9 7 9 8 7 7 7 6 6 6 5
12 10 3 3 2 4 6 4 0 2 3 3 4 4 4 3 3 4 3 3 4 3 2 2 3 1 3 3 5 5 3 2 4 3 2 3 7 6 10 10 4 4 6 7 6 6 6 6 6 5 4 5 4 3
5 2 3 3 5 10 9 2 2 4 3 3 4 4 5 5 5 3 3 3 2 3 3 1 4 4 2 2 1 3 3 3 4 3 3 2 8 10 8 7 6 5 6 6 5 5 5 5 5 4 5 2 3 3
2 1 2 2 5 4 1 3 3 3 5 5 3 4 3 3 4 4 3 2 1 2 2 1 2 2 2 3 2 2 3 4 2 2 1 2 5 5 4 8 6 5 5 5 5 4 4 4 4 3 3 2 3 2
1 2 6 6 1 1 2 2 3 3 4 2 3 2 3 4 4 5 4 4 2 2 1 1 2 1 1 1 1 2 3 2 3 2 2 3 3 4 4 6 5 5 5 4 4 3 3 4 3 3 3 2 2 1
7 10 10 6 5 1 3 3 1 3 3 4 3 4 3 4 3 3 3 1 0 1 2 2 3 2 2 3 1 2 3 3 3 3 3 1 1 3 4 5 4 4 4 4 4 4 3 2 1 2 3 3 2 1
3 1 3 3 1 2 2 2 3 3 4 3 3 2 4 2 3 2 2 1 2 2 3 3 3 1 3 2 1 3 3 3 3 2 1 1 2 2 3 2 4 3 3 3 3 1 2 3 3 3 3 2 2 1
2 3 1 2 2 2 3 3 3 3 2 4 4 2 4 3 2 2 2 1 3 4 4 4 3 3 2 2 3 5 3 1 7 3 3 2 2 2 2 3 3 3 3 3 3 3 4 3 3 3 3 3 2 2
4 1 1 1 2 0 6 1 2 3 3 3 3 3 2 3 2 0 1 2 3 2 2 3 3 2 3 4 2 2 4 6 4 2 3 1 1 0 1 2 3 3 3 3 3 2 3 5 5 4 4 3 3 3
0 0 1 2 3 4 2 3 3 3 3 3 2 3 3 2 3 0 2 3 4 3 2 2 1 0 1 1 1 1 1 2 2 1 1 2 1 2 1 2 3 3 4 1 3 2 2 3 4 5 4 3 3 4
2 2 4 4 2 2 3 3 3 2 2 2 2 3 3 2 2 2 1 3 3 3 2 3 3 2 1 2 2 3 1 2 2 2 2 2 1 1 2 3 3 3 2 3 3 3 3 3 4 4 5 5 5 5
1 3 5 2 1 1 3 3 2 2 2 3 3 3 1 1 1 3 2 2 2 3 4 4 5 4 4 4 4 3 4 3 3 3 2 4 3 3 3 3 3 4 4 4 2 3 4 4 4 6 4 6 8 6
2 3 3 3 2 3 3 3 2 1 3 3 3 3 2 2 3 2 1 2 2 3 4 5 5 5 6 5 3 3 3 4 5 4 2 2 3 4 4 4 5 5 3 5 5 5 4 5 4 4 5 4 5 7
3 2 2 1 2 2 2 2 2 2 2 3 3 3 3 3 3 3 3 5 7 7 7 6 6 6 5 5 4 3 2 3 3 3 3 4 4 4 6 5 6 10 5 5 6 5 4 2 3 4 2 5 6 4
3 3 2 4 3 3 5 4 3 3 2 1 2 3 3 2 4 8 10 8 7 7 5 4 3 2 2 2 3 3 3 3 4 4 4 2 3 2 1 3 4 3 4 4 7 5 6 3 3 3 6 4 4 3
3 3 2 2 3 3 3 3 3 2 2 2 3 3 1 4 6 5 6 6 5 4 4 3 2 2 2 2 2 2 1 3 4 4 4 4 3 2 2 2 2 2 2 4 4 3 0 1 3 2 5 3 2 3
1 0 2 3 3 2 3 3 3 2 3 4 4 4 3 4 4 3 2 3 4 3 2 3 3 2 3 3 2 2 2 2 4 6 5 3 2 2 2 2 2 2 1 3 3 3 3 3 5 6 6 7 7 6
3 3 1 2 3 3 3 0 2 2 1 3 3 3 3 2 3 4 3 3 1 3 3 2 3 2 3 3 3 4 4 3 1 2 6 4 3 4 3 2 2 3 3 2 2 3 5 6 4 5 6 8 7 5
1 1 2 2 3 3 2 2 3 4 3 3 3 2 2 0 2 4 4 2 4 3 3 4 5 5 6 5 4 4 5 3 3 1 5 6 6 3 3 2 2 3 4 5 5 4 5 5 4 5 5 4 3 3
Wind_Direction
287 296 307 306 308 308 311 313 317 320 321 324 325 329 332 330 329 343 266 186 225 261 281 254 254 244 253 179 208 299 330 302 321 33 164 215 168 223 124 179 166 149 138 190 95 127 259 182 66 159 227 94 120 120
282 287 292 297 306 308 310 307 309 314 312 318 318 323 321 317 316 313 259 196 209 244 265 290 260 245 234 222 179 238 241 319 251 355 249 284 270 2 152 209 11 269 177 189 176 210 240 256 225 306 174 152 167 134
279 283 289 293 295 297 299 302 309 308 309 313 314 316 319 313 302 294 258 229 237 264 280 256 236 239 225 229 228 197 257 213 260 191 206 229 261 128 163 242 166 238 155 169 43 276 261 255 203 154 124 124 124 120
275 280 283 287 291 293 298 300 308 308 307 308 310 311 313 306 296 281 257 188 198 281 279 285 297 265 221 195 198 212 222 39 345 38 288 229 204 174 209 230 175 199 131 174 258 273 301 337 123 133 102 98 98 98
274 277 280 285 291 294 298 301 307 303 306 309 309 307 308 308 297 288 253 221 205 216 284 293 303 270 221 206 200 209 221 236 8 336 306 246 232 73 266 65 258 178 183 167 212 211 202 246 98 90 112 118 127 120
272 276 278 280 283 287 292 294 301 302 302 308 309 308 305 305 299 291 290 173 197 187 280 290 285 292 318 166 185 187 190 161 185 193 233 267 257 124 115 219 255 215 208 211 187 159 202 96 68 52 92 128 112 113
276 275 278 279 283 289 292 293 294 300 303 308 309 305 300 291 219 201 216 76 107 152 243 283 281 271 310 123 138 111 161 191 163 240 236 225 282 97 118 203 258 250 352 72 97 117 55 353 155 106 100 86 80 76
276 279 281 283 287 291 294 295 297 301 302 307 308 306 309 55 107 246 242 236 184 234 247 270 274 312 3 308 153 167 144 182 206 227 289 199 359 70 258 251 277 0 92 56 46 53 98 100 82 107 123 129 123 124
280 278 286 289 289 289 293 297 301 306 306 308 310 310 152 221 189 205 309 317 173 229 272 262 281 299 341 282 254 213 166 152 200 197 229 107 231 213 228 224 201 213 150 135 37 81 57 72 101 93 89 92 124 135
287 287 290 294 291 289 294 302 308 314 308 315 337 13 277 97 309 303 155 187 171 204 229 248 270 276 75 248 263 285 189 171 169 229 112 148 241 246 260 222 263 195 156 133 115 88 108 103 146 155 181 170 183 173
301 299 302 298 295 292 298 303 315 328 336 16 350 292 289 305 303 215 226 204 178 232 204 230 206 233 272 249 299 353 283 167 187 219 140 207 256 231 211 238 227 191 190 144 115 113 111 136 162 157 128 101 119 138
305 298 293 291 288 290 296 301 318 323 245 241 280 276 278 286 239 253 216 199 207 242 188 222 222 198 233 173 230 284 297 48 208 162 164 220 248 241 231 212 192 165 130 98 89 108 98 93 102 107 101 103 108 108
297 297 299 294 289 296 300 302 300 280 312 295 224 251 237 255 245 254 203 237 262 3 354 321 272 210 209 189 231 323 304 235 143 134 231 231 306 40 52 106 98 103 110 104 95 89 91 90 85 93 96 97 103 92
302 303 303 290 292 295 298 291 287 348 50 280 276 287 233 211 245 288 336 306 294 245 288 287 272 338 344 74 143 237 250 310 310 236 237 323 46 69 51 41 108 102 104 105 104 99 94 95 87 73 75 89 94 81
298 301 294 289 288 25 91 18 310 306 250 267 266 250 242 311 292 298 279 296 305 320 346 316 253 195 310 76 323 334 275 265 244 275 289 57 26 89 76 43 63 93 94 89 100 97 91 89 87 81 62 69 77 76
308 298 254 267 348 342 318 323 125 178 236 233 234 279 271 271 338 320 310 312 306 314 288 222 273 202 156 182 197 226 304 338 335 322 285 109 91 89 103 74 52 82 93 92 85 93 98 98 98 93 71 60 57 53
299 252 36 61 341 308 288 199 186 224 246 237 241 235 262 271 259 261 295 286 271 311 324 285 299 10 316 233 186 26 360 297 310 340 340 59 120 108 117 144 120 110 101 100 94 97 101 111 111 90 93 46 31 10
238 350 0 314 348 336 312 205 238 253 247 230 243 255 224 236 270 275 262 232 119 294 285 333 282 298 339 9 48 5 317 311 308 8 23 73 105 133 164 116 119 125 115 114 121 127 119 117 104 120 115 73 85 62
229 301 300 306 330 325 302 234 220 269 258 290 276 256 239 254 254 253 272 277 216 226 288 315 287 285 283 85 313 1 333 329 330 338 40 26 101 101 99 107 123 122 129 132 139 140 132 144 151 155 146 136 113 82
287 281 275 249 167 241 261 259 243 265 270 260 281 278 238 237 262 268 280 277 98 44 339 255 231 246 166 153 158 282 273 313 318 86 95 144 204 159 163 151 147 139 117 94 93 102 107 96 117 172 160 159 129 354
316 278 79 118 153 229 267 299 274 263 301 288 279 279 269 281 266 242 260 131 89 204 239 228 242 279 53 166 123 112 269 302 356 11 48 157 175 166 144 144 142 142 135 146 133 140 171 194 197 165 175 183 171 161
275 3 92 206 243 208 240 211 226 279 289 259 303 267 278 284 270 234 146 115 227 234 208 202 217 195 221 207 190 219 166 307 293 324 61 95 108 136 165 177 149 172 176 198 183 197 214 209 190 174 173 202 166 174
319 107 248 250 280 352 263 81 266 247 268 275 313 285 286 276 247 124 256 217 256 236 249 249 253 229 240 282 283 229 179 176 268 162 231 251 278 35 133 172 181 178 206 242 200 224 227 204 193 183 180 173 175 193
283 314 268 254 205 270 319 272 227 267 279 277 260 291 277 275 319 7 38 344 290 291 311 322 275 19 34 33 343 289 243 157 157 141 175 120 77 321 350 265 235 215 221 236 189 240 212 193 174 183 176 180 200 212
50 287 97 296 279 290 270 274 254 252 280 278 292 282 290 335 24 43 225 250 288 280 294 321 324 322 261 293 290 276 291 170 164 193 207 186 173 293 281 267 272 245 211 218 232 220 236 193 183 180 171 185 217 219
279 222 160 271 93 257 289 293 261 273 284 282 269 272 331 330 140 246 257 274 320 340 327 312 306 289 266 207 249 253 254 199 178 207 246 195 197 208 238 226 246 279 201 206 184 198 197 190 171 176 201 211 216 233
282 277 239 222 228 247 271 281 267 241 278 271 310 318 315 274 243 183 284 210 242 269 260 271 271 265 262 267 238 209 198 195 198 200 216 220 214 200 196 204 223 239 188 189 192 178 189 163 155 178 212 237 217 210
247 256 210 265 247 230 245 280 269 257 290 335 350 305 315 319 318 312 282 309 297 289 286 275 257 254 246 244 244 239 227 209 242 262 277 261 235 228 221 226 237 254 259 211 189 180 214 233 63 7 266 221 235 215
260 247 199 267 238 231 217 210 242 247 217 76 348 302 319 330 272 279 289 298 307 289 290 298 306 328 297 268 243 224 202 171 170 217 230 256 318 293 280 253 243 219 200 210 202 217 214 249 39 0 323 270 255 230
264 191 233 252 256 257 254 195 228 233 211 216 243 273 308 253 255 245 267 284 287 318 317 310 328 343 318 336 323 354 279 189 185 180 187 217 233 278 324 330 338 331 193 206 224 219 324 344 76 268 262 281 267 257
213 188 239 236 261 245 241 252 257 210 194 225 228 255 275 283 303 252 228 266 292 310 3 11 24 9 347 341 344 332 343 210 210 211 205 209 219 252 280 274 279 317 310 196 209 229 223 223 207 219 227 240 242 224
201 210 201 287 281 293 304 136 290 303 225 206 249 217 269 258 278 289 230 211 348 8 354 31 52 330 280 262 267 268 260 289 296 222 187 196 215 222 235 237 240 249 258 258 212 215 224 233 261 261 268 274 269 240
170 170 213 272 295 306 329 350 26 12 337 306 287 267 281 316 311 289 316 178 238 239 256 254 246 243 252 254 250 263 256 257 260 234 201 192 206 240 278 252 263 257 248 244 242 220 216 211 238 267 280 308 359 50